Find Iperdrone.0

NORAD ID: 60520 Int'l Des: 2024-149 Owner: ASI Country: I operational
LEOCIRCULARRETROGRADESSO

現在のビュー

3D地球を読み込み中...

Iperdrone.0について

説明を読み込み中...

次回通過

Passes for default location (London). Set your location on the main map for personalized predictions.

高度履歴

Loading altitude history...

軌道要素

1 60520U 24149BE 26150.72739696 .00082682 00000-0 86984-3 0 9990
2 60520 97.3788 243.1122 0001730 280.4542 79.6522 15.64038187100182
Epoch: May 30, 2026 • Age: 23 hours

現在のステータス

高度 378.1 km
速度 7.68 km/s
衛星直下点 13.74°N, 104.91°E
打ち上げ日 Aug 16, 2024
運用期間 1.7 years
タイプ other

技術仕様

分類 Payload
質量 12.00 kg
乾燥質量 12.00 kg
総質量 12.00 kg
長さ 0.30 m
直径 0.20 m
スパン 0.60 m
形状 Box + 2 pan
製造者 TERRAN/ARGOT
バスタイプ Cubesat 6U
フェーズステータス In Orbit
所有者/国 ASI/I

Most Searched